RH
75 72 79 94 100 98 92 82 70 83 77 56 48 53 67 77 77 91 88 84 89 94 89 81 81 78 78 80 80 78 80 79 79 79 77 78 76 76 76 73 74 74 74 73 73 70 70 71 70
74 76 91 96 99 98 88 75 80 70 58 59 52 61 72 91 76 95 93 86 90 91 90 85 83 81 78 79 78 78 75 76 78 78 77 76 75 75 75 73 73 73 73 74 74 71 68 70 71
74 69 96 97 96 93 89 79 70 69 63 57 62 64 74 87 80 82 80 86 90 94 92 83 83 82 77 77 78 80 77 76 78 78 77 77 76 74 73 73 73 73 72 73 72 73 68 66 70
78 92 96 99 91 77 84 87 64 60 61 58 64 81 74 66 74 79 80 85 93 92 88 80 78 78 76 76 78 78 75 75 76 78 76 75 73 73 73 73 73 72 71 70 69 71 70 71 67
76 91 94 94 84 74 72 75 77 69 59 62 63 88 93 71 74 78 82 83 93 96 90 81 81 79 78 76 76 76 75 76 78 78 74 74 73 72 73 73 73 72 72 72 72 72 69 70 68
90 94 94 94 78 67 75 82 72 65 71 71 74 79 89 77 81 79 77 84 86 93 91 82 80 77 78 75 75 75 76 77 76 76 76 74 74 73 73 72 71 70 70 72 73 71 70 71 69
86 95 87 80 81 70 70 78 81 71 69 68 61 83 89 86 74 72 75 85 88 88 91 90 86 76 75 77 75 75 76 76 76 76 76 75 74 72 73 72 70 69 68 68 70 68 68 68 70
78 84 89 79 83 78 55 67 74 66 68 59 57 86 96 80 68 71 82 89 92 92 94 97 94 88 91 86 75 75 76 76 75 74 74 72 72 71 74 78 75 68 67 67 68 69 70 70 70
59 85 87 76 73 64 61 68 72 64 63 53 51 62 63 66 64 78 91 91 94 94 98 97 96 97 95 92 79 77 75 75 74 76 80 85 93 89 84 75 71 66 66 67 71 71 71 71 71
87 97 76 55 57 62 59 62 69 64 61 63 61 59 59 65 66 86 90 92 96 88 97 98 97 97 96 79 89 93 86 90 94 93 89 94 90 92 84 79 69 66 65 69 63 69 68 71 79
80 83 68 50 48 68 57 57 53 64 79 65 69 66 61 66 65 80 89 86 90 88 92 97 97 97 96 90 98 98 96 97 98 86 89 92 91 94 93 92 91 86 74 82 80 84 82 78 82
86 69 64 43 39 46 46 53 58 62 65 55 55 56 56 64 62 74 86 88 91 92 90 93 94 97 96 96 98 98 96 97 98 96 86 94 97 95 94 95 90 92 90 88 87 93 85 78 77
66 62 53 55 52 43 38 51 59 62 59 50 53 52 55 57 60 68 74 79 84 88 86 88 88 94 93 96 98 97 95 94 93 94 88 94 95 95 91 93 93 91 93 90 94 95 83 80 73
43 44 44 42 44 39 37 42 59 64 58 58 61 57 54 55 65 66 69 78 81 80 82 82 83 87 89 95 95 95 92 89 91 94 85 91 94 93 93 94 90 90 93 92 93 94 90 80 76
33 43 37 36 39 38 38 58 65 66 62 67 66 64 59 62 64 65 65 72 74 73 74 78 78 81 87 90 87 88 86 80 89 88 86 86 89 91 94 94 92 90 93 89 88 83 88 76 71
38 42 54 38 35 32 36 58 73 66 67 71 67 65 62 64 63 60 59 64 66 66 70 71 63 74 82 85 82 80 80 81 80 89 90 86 87 92 94 94 94 92 93 95 94 93 82 84 76
34 51 52 42 34 33 36 70 72 66 70 73 68 65 64 64 61 61 58 57 59 60 64 68 69 75 79 83 81 83 77 82 84 90 92 89 87 88 93 93 94 93 94 96 90 87 87 69 77
39 49 45 41 36 36 43 51 73 69 71 74 72 66 65 64 62 59 56 54 52 54 57 61 66 75 77 82 84 86 85 87 86 89 90 87 92 88 91 93 89 92 95 94 90 81 81 80 73
34 40 41 36 30 32 40 47 75 70 71 75 74 72 68 65 60 55 55 52 51 54 55 60 64 72 76 89 86 87 84 86 88 87 82 85 89 89 92 94 92 94 94 87 80 85 76 74 77
24 29 35 30 28 30 33 41 63 70 70 69 72 71 68 62 60 57 56 52 55 57 53 60 61 68 75 68 70 81 82 85 83 82 84 84 84 89 90 93 94 92 94 91 90 86 90 80 78
25 27 28 30 31 31 38 49 57 68 64 63 64 64 62 60 60 57 56 54 51 62 59 59 59 62 69 67 85 96 89 87 88 87 89 88 85 88 90 91 93 94 95 95 92 90 82 70 82
34 22 21 24 31 43 30 52 77 69 71 65 65 64 62 59 56 56 54 55 52 59 61 60 58 60 67 73 72 82 70 70 78 87 86 90 87 87 89 89 90 92 97 94 94 89 91 73 76
26 21 23 24 33 52 31 43 66 63 70 68 62 61 59 58 55 56 54 51 51 51 61 61 61 62 64 75 64 70 73 75 96 90 83 94 94 88 87 90 91 94 97 93 93 93 92 73 73
22 24 29 34 38 40 28 39 42 64 58 60 56 53 52 53 52 51 51 49 51 49 58 62 66 66 64 72 70 69 70 91 94 94 89 92 96 89 91 89 93 92 95 95 93 93 92 91 85
26 35 46 50 49 40 32 38 30 46 45 45 54 49 45 49 50 48 54 52 52 51 60 62 68 69 67 73 71 72 71 81 82 89 88 92 95 97 92 95 96 96 94 95 95 94 95 94 90
33 33 54 60 58 41 32 39 32 30 36 39 38 41 40 46 48 47 47 50 50 51 57 60 68 68 69 74 72 72 71 73 73 77 85 80 77 78 78 88 90 91 93 94 95 97 97 93 96
38 37 31 39 35 33 32 24 17 22 32 42 42 39 41 42 43 43 43 44 46 50 52 61 66 66 69 71 71 72 72 73 73 79 76 77 83 80 84 82 89 94 94 94 95 97 96 97 96
30 28 42 36 46 39 31 23 24 19 19 31 45 42 39 39 44 42 41 41 44 49 52 57 60 64 67 68 68 71 72 73 71 78 83 83 80 82 82 86 84 93 95 94 96 96 95 96 98
30 32 34 35 35 37 34 24 19 17 16 17 34 35 37 41 42 39 38 38 39 48 54 57 59 61 65 68 68 70 73 73 71 78 83 84 82 84 90 90 88 91 92 93 94 95 96 96 96
39 29 25 33 41 33 32 24 14 13 13 15 14 25 30 36 40 36 36 37 39 40 53 57 58 59 60 66 68 70 73 77 79 79 80 80 87 86 81 92 89 88 88 89 89 89 87 96 96
Wind_Speed
12 8 3 2 3 2 3 3 2 7 4 6 20 4 7 5 2 3 7 7 12 9 8 12 16 16 17 16 16 16 16 16 15 15 15 15 16 16 16 15 12 12 11 12 11 12 10 10 11
7 8 2 1 3 2 3 2 6 9 3 8 12 9 4 3 4 11 8 12 11 10 7 9 15 15 17 16 16 15 16 15 14 14 14 14 14 15 15 14 12 11 9 10 11 11 11 11 11
10 5 1 1 2 2 2 3 6 3 3 7 6 6 5 5 11 12 12 14 11 8 7 11 16 15 17 16 15 14 16 14 14 14 13 13 15 14 14 13 12 10 7 8 9 9 10 10 11
6 2 1 2 3 4 4 7 12 10 5 6 11 9 5 1 14 8 16 14 13 10 7 15 17 17 16 16 14 15 14 14 12 14 13 14 14 14 13 13 12 10 9 8 8 9 8 9 10
2 2 2 1 3 4 1 9 8 8 8 10 4 5 7 5 13 18 16 13 13 8 8 11 15 15 15 15 14 13 14 13 11 14 13 13 13 13 13 12 12 11 10 9 9 10 8 9 7
1 1 1 1 3 6 3 2 6 4 5 8 10 9 4 11 18 15 13 12 11 10 8 10 16 15 14 14 14 13 13 12 11 11 12 11 11 11 12 12 11 10 9 10 10 10 9 8 8
4 2 3 1 5 2 5 10 8 4 7 6 13 6 4 13 15 13 11 11 10 9 8 7 8 12 14 14 13 13 13 12 11 10 11 10 10 9 10 11 10 9 9 8 9 10 11 9 7
3 2 3 2 3 5 2 4 4 7 2 7 12 7 10 17 16 10 12 10 9 7 7 6 6 6 6 6 12 12 12 11 11 10 10 8 7 8 9 6 7 8 8 6 7 9 9 8 8
4 2 3 5 6 2 4 4 6 3 8 4 4 7 15 23 17 13 13 9 8 7 5 5 6 6 5 4 7 10 11 11 10 9 8 6 2 4 3 4 6 6 6 5 6 7 6 7 8
3 2 5 6 8 1 2 8 12 6 12 5 11 19 22 21 18 16 16 14 11 14 8 5 6 6 5 5 4 4 4 3 4 4 4 3 1 2 3 3 4 4 4 5 7 4 3 4 2
6 5 3 2 9 3 5 12 10 12 3 5 23 27 26 23 18 15 14 15 13 13 9 7 6 6 6 4 3 2 2 2 2 4 4 3 2 1 1 1 0 1 4 3 4 3 2 2 2
3 9 10 3 9 6 7 9 6 10 6 13 22 30 30 24 19 17 16 14 13 13 11 9 7 6 6 3 3 4 3 3 2 3 3 3 2 1 1 1 1 1 2 2 2 2 2 3 1
12 10 8 15 15 10 4 12 6 12 10 21 21 24 26 22 18 15 14 13 12 13 12 11 9 7 6 5 3 3 4 3 4 4 3 3 3 3 1 2 2 1 1 2 3 2 2 1 2
6 14 17 15 12 6 8 5 8 6 18 22 22 24 22 23 21 15 16 16 15 14 13 12 11 9 6 5 6 4 3 4 4 4 4 4 3 4 3 3 2 0 1 2 2 2 2 3 3
11 9 9 14 10 2 9 3 4 17 18 23 21 19 19 19 18 18 18 18 17 14 14 13 12 9 8 7 5 4 4 4 4 5 6 5 5 5 4 2 1 1 1 2 2 2 2 3 2
5 5 3 9 7 7 7 3 13 17 21 21 21 19 20 20 18 14 14 16 16 14 14 13 11 11 8 6 5 4 5 4 4 4 4 6 5 5 4 4 2 1 0 1 2 2 2 2 2
3 4 7 8 10 4 8 4 14 18 19 19 20 20 19 17 18 16 15 16 16 15 14 13 11 11 9 7 5 5 6 4 5 4 4 6 6 5 4 3 2 3 0 0 1 1 1 1 2
6 4 4 6 4 11 11 6 18 19 19 21 19 19 20 20 22 17 18 14 15 14 14 14 11 9 9 5 4 2 3 2 3 4 4 6 5 6 4 3 4 3 2 1 1 0 2 2 2
4 4 6 6 6 9 15 9 21 22 16 18 19 18 20 20 17 17 16 16 15 14 14 15 15 11 7 4 4 4 4 2 1 4 7 6 5 5 6 4 4 4 3 3 2 2 2 3 2
8 5 6 10 5 6 6 17 18 22 27 26 25 23 22 19 18 19 19 18 16 16 17 16 16 14 11 9 7 3 4 3 2 2 5 6 6 6 4 6 4 4 4 4 3 1 2 2 1
13 13 9 10 5 3 5 7 13 19 6 12 16 18 18 23 22 22 22 21 18 17 18 17 18 17 15 14 3 2 3 2 3 1 2 5 6 6 6 6 5 5 3 4 3 3 4 2 1
12 12 14 14 3 5 5 5 11 16 22 21 20 21 21 23 21 20 22 22 21 17 16 17 17 17 15 12 10 8 7 7 4 4 3 4 7 7 6 6 6 5 3 4 3 3 2 3 3
15 6 9 8 3 2 9 4 9 14 19 22 23 24 24 24 24 23 24 25 23 18 17 17 18 16 17 14 14 10 7 4 3 3 6 5 5 6 7 6 6 6 4 4 4 3 3 2 3
4 4 3 1 3 11 17 8 6 14 25 21 21 24 25 25 26 24 23 20 20 19 17 17 18 17 17 15 14 14 13 7 5 4 4 4 4 6 6 6 5 5 5 5 5 4 4 4 1
11 8 4 4 6 13 7 8 13 22 25 28 29 29 26 23 22 21 24 22 20 22 20 18 20 20 18 17 16 15 14 12 12 8 5 6 4 3 7 6 6 4 5 5 5 5 5 5 3
13 15 7 9 4 8 6 9 7 15 18 26 24 29 21 22 21 23 22 24 23 23 21 22 21 21 19 18 19 16 14 9 8 10 6 6 6 7 8 8 6 7 6 6 5 3 4 5 4
8 21 12 5 4 2 4 5 6 7 13 17 21 21 20 19 19 20 22 23 22 23 24 24 23 22 21 22 18 16 14 13 11 10 10 7 6 6 7 9 9 6 6 7 6 5 6 5 5
16 9 8 4 10 6 5 5 7 12 12 14 19 21 21 22 20 17 20 21 20 23 22 22 22 24 22 22 18 16 16 15 13 9 10 9 8 7 7 8 9 7 7 8 8 6 5 6 4
9 11 4 6 5 13 2 9 9 10 15 19 20 23 22 24 24 23 23 23 22 18 20 22 21 22 20 19 18 17 15 14 13 10 10 10 8 9 7 8 8 8 9 8 9 8 7 8 6
10 11 8 11 13 1 3 16 5 11 13 14 17 19 19 23 25 25 25 24 23 20 20 21 20 20 20 19 18 18 15 15 14 13 11 11 11 8 9 7 9 10 10 10 11 10 9 10 9
Wind_Direction
165 158 156 151 223 227 249 242 239 144 201 208 157 174 148 34 129 184 132 143 126 141 142 140 131 129 122 118 115 115 111 111 113 113 114 119 125 124 122 122 122 123 123 116 115 109 109 109 116
156 149 231 191 213 225 245 244 241 166 146 106 130 117 68 90 97 119 117 140 132 140 141 137 135 131 124 118 120 120 114 115 112 114 117 119 111 114 121 124 124 122 125 122 116 111 110 114 111
168 187 152 150 257 225 308 290 279 225 95 158 116 63 86 107 120 136 135 134 128 130 133 145 136 134 129 125 123 116 115 116 113 122 113 106 116 114 115 118 120 116 112 97 100 103 112 111 111
171 205 189 224 279 268 150 253 233 223 182 81 106 73 77 162 142 145 141 131 127 132 141 142 141 136 136 128 126 120 120 123 125 115 116 115 114 115 117 118 115 114 111 103 102 101 107 109 110
282 231 225 213 267 265 27 324 334 167 153 128 99 89 94 83 118 131 138 132 134 135 146 144 143 138 139 134 131 126 126 125 120 113 114 113 116 117 119 114 109 108 105 101 98 98 106 111 117
118 342 238 105 293 302 5 24 314 242 129 117 101 106 114 134 136 142 134 136 140 140 139 150 143 143 140 138 138 134 133 126 118 108 109 114 118 119 115 113 113 112 106 97 94 91 98 108 116
165 187 188 192 286 348 135 154 217 209 161 122 141 97 106 148 143 142 135 136 140 142 136 142 143 151 151 147 144 140 135 130 125 122 112 117 120 121 118 115 116 115 108 105 104 97 91 100 103
185 126 195 209 342 309 92 148 178 143 158 103 152 154 162 163 147 130 133 135 137 141 133 137 135 137 149 148 149 145 139 137 134 128 125 120 114 124 124 123 124 120 114 115 112 105 106 99 107
150 216 211 162 167 22 105 165 149 46 148 177 153 139 140 149 144 131 137 139 140 142 144 136 138 145 151 148 158 152 150 146 141 131 122 104 79 88 56 145 133 131 127 105 80 79 107 124 110
172 201 229 178 146 26 174 166 158 165 179 67 90 109 140 148 153 146 154 156 157 164 162 157 154 151 154 163 162 150 160 127 122 127 117 123 146 142 122 267 165 141 98 83 67 80 103 96 127
185 225 207 214 139 156 236 173 172 151 213 195 148 143 154 156 159 153 157 165 166 166 167 174 165 158 171 164 169 143 150 142 139 147 172 167 179 290 128 213 49 64 68 36 50 55 63 94 173
238 247 254 155 210 221 254 145 155 164 206 150 157 152 154 163 165 162 163 167 158 167 175 179 172 170 187 169 172 163 163 166 173 190 187 168 190 170 93 192 212 166 96 84 35 11 26 68 117
238 261 260 246 252 244 226 180 174 200 128 137 148 158 160 164 165 165 161 167 163 171 177 183 178 181 188 188 162 178 180 181 175 179 195 178 194 156 156 241 220 152 123 109 33 50 10 14 70
202 227 256 265 249 236 171 158 113 137 138 145 156 164 168 170 169 163 168 172 173 175 179 180 189 189 177 192 177 182 187 187 178 192 195 210 218 162 190 225 217 142 108 91 49 19 66 15 27
264 294 294 273 215 242 115 142 157 148 155 152 163 168 172 175 174 178 176 172 177 179 177 183 187 190 186 192 183 183 198 198 190 199 186 194 227 189 188 191 266 48 96 78 137 75 72 39 53
180 163 254 275 218 189 150 229 136 154 155 164 170 173 177 182 182 180 178 178 180 178 177 183 188 191 193 184 181 194 200 203 207 193 186 184 214 217 173 172 147 205 172 47 5 73 104 135 128
300 190 203 286 223 180 177 117 165 168 164 173 181 179 181 188 186 182 179 183 184 179 176 181 188 189 193 193 176 199 202 207 192 169 175 184 206 199 171 164 158 149 118 322 290 334 197 131 111
190 183 205 228 245 191 202 176 168 179 178 181 186 187 187 192 196 185 184 177 185 183 179 179 186 185 191 189 155 168 166 199 170 179 177 175 205 189 168 144 135 142 171 151 142 186 37 40 94
179 186 194 237 228 187 219 171 183 182 189 191 189 196 195 198 198 195 190 184 183 185 183 184 185 188 178 172 171 176 182 182 184 187 172 176 192 198 168 147 154 169 148 154 147 105 97 36 86
246 251 247 288 215 179 231 217 195 180 197 193 187 194 199 197 194 196 194 195 180 187 191 188 193 184 187 195 198 176 158 165 168 176 175 177 183 202 190 158 168 172 145 144 153 168 103 65 74
219 218 228 235 47 222 112 248 196 202 190 201 203 207 207 200 199 197 192 196 194 184 191 190 193 192 192 193 142 74 78 71 114 224 171 188 187 187 205 186 166 175 163 168 175 166 142 139 41
214 205 222 252 114 221 160 239 208 205 204 198 202 202 207 206 207 207 201 195 198 191 185 190 195 195 193 179 185 187 191 192 189 162 187 189 189 190 199 201 178 178 169 188 192 165 150 122 149
228 162 201 232 193 280 248 130 263 208 210 207 206 207 208 205 206 205 207 200 199 188 186 187 189 194 192 188 191 192 199 194 155 146 165 195 196 200 197 199 191 182 180 202 193 169 162 158 145
159 193 183 70 145 248 247 163 247 190 216 212 211 215 212 201 203 206 211 206 197 193 187 186 185 193 193 189 195 193 197 175 161 178 173 190 196 208 209 191 192 198 186 178 200 199 173 175 168
196 126 234 241 200 237 222 195 215 202 214 210 210 212 213 206 202 199 201 204 200 195 184 185 188 193 192 191 195 195 197 186 187 182 181 169 185 196 213 191 190 194 196 193 182 193 190 175 187
204 202 167 187 178 221 179 211 237 198 215 216 217 216 210 200 200 203 197 201 201 198 185 185 189 192 191 191 198 198 196 194 194 190 180 193 196 204 202 202 200 201 188 190 177 188 190 186 199
199 209 197 94 3 146 222 241 291 194 225 218 217 213 206 204 209 208 204 200 197 195 194 187 188 193 191 193 196 198 195 195 198 187 192 191 184 194 195 196 205 197 186 189 179 191 208 191 196
205 167 189 206 204 236 281 224 224 175 199 211 220 220 212 204 200 207 210 203 195 194 193 190 192 192 191 193 194 195 197 199 198 182 179 186 197 201 190 194 202 189 189 190 185 193 204 201 209
205 201 202 150 175 220 271 251 200 204 188 190 207 222 210 201 201 199 206 202 201 189 190 192 193 193 191 192 193 195 199 201 197 188 188 189 183 197 197 189 196 195 195 193 195 200 192 205 219
287 195 164 201 215 278 186 250 253 214 200 176 203 217 213 204 200 199 197 194 194 190 190 191 191 191 192 190 192 197 196 194 198 199 189 187 191 188 200 186 195 203 203 198 201 208 204 203 212